Location: Burland Observatory
(39.4088°N, 105.4217°W)
Time: 06:36:09
(UTC-07:00)

S-56A Canister/Altair - Pass Details

Date: 10 December 2019
Orbit: 634 x 2498 km, 38.9° (Epoch: 22 January)

Event Time Altitude Azimuth Distance (km) Brightness Sun altitude
Rises 17:03:06 0° 288° (WNW) 5,988 12.9 -5.1°
Reaches altitude 10° 17:08:01 10° 279° (W) 4,778 12.6 -6.0°
Maximum altitude 17:18:05 28° 228° (SW) 2,975 11.4 -7.7°
Drops below altitude 10° 17:25:44 10° 173° (S) 3,559 11.1 -9.1°
Sets 17:28:49 0° 162° (SSE) 4,264 11.4 -9.7°
